Other Surface Observations
Issued by NWS Upton, NY

Home | Current Version | Previous Version | Text Only | Print | Product List | Glossary On
Versions: 1 2 3 4 5 6 7 8 9 10 11 12 13 14 15 16 17 18 19 20 21 22 23 24 25 26 27 28 29 30 31 32 33 34 35 36 37 38 39 40 41 42 43 44 45 46 47 48 49 50
425
SXUS51 KOKX 110357
OSOOKX
NEW YORK CITY METROPOLITAN AREA WEATHER ROUNDUP
National Weather Service New York NY
1100 PM EST SUN DEC 10 2017

CITY           SKY/WX    TMP DP  RH WIND       PRES   REMARKS
Central Park   CLOUDY    36  21  54 VRB6G16   30.03S WCI  31
LaGuardia APRT CLOUDY    37  20  50 SW10      30.01S WCI  30
Kennedy INTL   CLOUDY    36  25  64 W16       30.04R WCI  26
Newark Liberty CLOUDY    35  22  58 SW9       30.02S WCI  28
Teterboro APRT CLOUDY    35  23  61 SW9       30.01S WCI  28
Bronx Bot Gard   N/A     36  21  55 W5        30.03S WCI  32
Bronx Lehman C   N/A     36  23  60 SW6         N/A  WCI  31
Queens College   N/A     36  23  60 W9          N/A  WCI  29
Breezy Point     N/A     36 N/A N/A SW12G21     N/A  WCI  27
Brooklyn Coll    N/A     36  25  64 SW8         N/A  WCI  29
Staten Island    N/A     34  25  69 SW6         N/A  WCI  29

>>>>>>>>>>>>>>>>>>>>>>>>>>>>>>>>> KEY <<<<<<<<<<<<<<<<<<<<<<<<<<<<<<<
> SKY/WX - SKY CONDITION/PRESENT    : R : WCI - WIND CHILL INDEX    <
>          WEATHER                  : E : VSB - VISIBILITY IN MILES <
> TMP    - TEMPERATURE IN DEG F     : M : HX  - HEAT INDEX          <
> DP     - DEW POINT TEMPERATURE    : A : TC  - TEMPERATURE IN      <
> RH     - RELATIVE HUMIDITY        : R :       CELSIUS             <
> WIND   - DIRECTION/SPEED (MPH)    : K : VRB - VARIABLE WIND  DIR  <
> PRES   - PRESSURE (IN HG)         : S :                           <
>>>>>>>>>>>>>>>>>>>>>>>>>>>>>>>>> KEY <<<<<<<<<<<<<<<<<<<<<<<<<<<<<<<




USA.gov is the U.S. government's official web portal to all federal, state and local government web resources and services.